Preview of NWS' New Version of Forecast
This preview is not operational and should not be used for support decisions.

Regional Weather Roundup (RWR)

Issued by National Weather Service (NWS)

                            
000
ASUS45 KCYS 201310
RWRWY 

WYOMING REGIONAL WEATHER ROUNDUP
NATIONAL WEATHER SERVICE CHEYENNE WY
700 AM MDT TUE AUG 20 2019

NOTE:  "FAIR" INDICATES FEW OR NO CLOUDS BELOW 12,000 FEET
WITH NO SIGNIFICANT WEATHER AND/OR OBSTRUCTIONS TO VISIBILITY.

WYZ001-201400-
YELLOWSTONE NATIONAL PARK
  
CITY           SKY/WX    TMP DP  RH WIND       PRES   REMARKS
LK YELLOWSTONE   N/A     39  34  82 CALM      30.37R                  
W YELLOWSTONE  NOT AVBL                                               

$$
WYZ002>013-054>058-071-098>099-201400-
NORTHERN WYOMING
  
CITY           SKY/WX    TMP DP  RH WIND       PRES   REMARKS
JACKSON        FAIR      42  34  73 N3        30.29R                  
CODY           FAIR      57  39  51 CALM      30.18R                  
GREYBULL       FAIR      59  41  51 SE3       30.08R                  
WORLAND        FAIR      62  40  44 SE3       30.09R                  
SHERIDAN       FAIR      57  46  66 SW3       30.11R                  
BUFFALO        FAIR      61  41  47 N3        30.17R                  
GILLETTE       FAIR      56  50  80 S3        30.09S                  
HULETT         FAIR      66  50  55 E10       30.13                   
NEWCASTLE      FAIR      72  45  37 SE3       30.08                   

$$
WYZ014>020-022>026-101>103-201400-
CENTRAL WYOMING
  
CITY           SKY/WX    TMP DP  RH WIND       PRES   REMARKS
BIG PINEY      FAIR      43  27  53 NE7       30.32R                  
PINEDALE       FAIR      39  32  75 NW6       30.32  WCI  35          
DUBOIS         FAIR      48  30  49 W13       30.31                   
LANDER         FAIR      68  30  24 W10       30.19R                  
RIVERTON       FAIR      61  34  36 W7        30.17R                  
CASPER         FAIR      60  37  42 W10       30.18R                  
DOUGLAS        FAIR      55  41  59 NW7       30.14R                  

$$
WYZ021-027>030-104>119-201400-
SOUTHERN WYOMING
  
CITY           SKY/WX    TMP DP  RH WIND       PRES   REMARKS
EVANSTON       FAIR      55  25  31 S6        30.29S                  
KEMMERER       FAIR      45  30  57 N12       30.31                   
ROCK SPRINGS   FAIR      57  23  26 SE7       30.28R                  
DIXON          FAIR      48  28  44 E16G22    30.32R                  
RAWLINS        FAIR      50  26  39 CALM      30.29R                  
SARATOGA       FAIR      48  30  49 CALM      30.32R                  
LARAMIE        FAIR      50  32  50 E5        30.32R                  
CHEYENNE       FAIR      65  40  39 W12       30.20R                  
TORRINGTON     FAIR      63  60  90 N3        30.04R                  
PINE BLUFFS    FAIR      57  54  88 W6        30.12S                  

$$
  

000
ASUS45 KCYS 201310
RWRWY 

WYOMING REGIONAL WEATHER ROUNDUP
NATIONAL WEATHER SERVICE CHEYENNE WY
700 AM MDT TUE AUG 20 2019

NOTE:  "FAIR" INDICATES FEW OR NO CLOUDS BELOW 12,000 FEET
WITH NO SIGNIFICANT WEATHER AND/OR OBSTRUCTIONS TO VISIBILITY.

WYZ001-201400-
...YELLOWSTONE NATIONAL PARK...
  
CITY           SKY/WX    TMP DP  RH WIND       PRES   REMARKS
LK YELLOWSTONE   N/A     39  34  82 CALM      30.37R                  
W YELLOWSTONE  NOT AVBL                                               

$$
WYZ002>013-054>058-071-098>099-201400-
...NORTHERN WYOMING...
  
CITY           SKY/WX    TMP DP  RH WIND       PRES   REMARKS
JACKSON        CLEAR     42  34  73 N3        30.29R                  
CODY           CLEAR     57  39  51 CALM      30.18R                  
GREYBULL       CLEAR     59  41  51 SE3       30.08R                  
WORLAND        MOCLDY    62  40  44 SE3       30.09R                  
SHERIDAN       PTCLDY    57  46  66 SW3       30.11R                  
BUFFALO        MOCLDY    61  41  47 N3        30.17R                  
GILLETTE       PTCLDY    56  50  80 S3        30.09S                  
HULETT         FAIR      66  50  55 E10       30.13R                  
NEWCASTLE      FAIR      72  45  37 SE3       30.08S                  

$$
WYZ014>020-022>026-101>103-201400-
...CENTRAL WYOMING...
  
CITY           SKY/WX    TMP DP  RH WIND       PRES   REMARKS
BIG PINEY      MOCLDY    43  27  53 NE7       30.32R                  
PINEDALE       PTCLDY    39  32  75 NW6       30.32R WCI  35          
DUBOIS         FAIR      48  30  49 W13       30.31R                  
LANDER         MOCLDY    68  30  24 W10       30.19R                  
RIVERTON       PTCLDY    61  34  36 W7        30.17R                  
CASPER         PTCLDY    60  37  42 W10       30.18R                  
DOUGLAS        CLEAR     55  41  59 NW7       30.14R                  

$$
WYZ021-027>030-104>119-201400-
...SOUTHERN WYOMING...
  
CITY           SKY/WX    TMP DP  RH WIND       PRES   REMARKS
EVANSTON       PTCLDY    55  25  31 S6        30.29S                  
KEMMERER       PTCLDY    45  30  57 N12       30.31S                  
FORT BRIDGER   NOT AVBL                                               
ROCK SPRINGS   PTCLDY    57  23  26 SE7       30.28R                  
DIXON          FAIR      48  28  44 E16G22    30.32R                  
RAWLINS        CLEAR     50  26  39 CALM      30.29R                  
SARATOGA       FAIR      48  30  49 CALM      30.32R                  
LARAMIE        CLEAR     50  32  50 E5        30.32R                  
CHEYENNE       CLEAR     65  40  39 W12       30.20R                  
TORRINGTON     MOCLDY    63  60  90 N3        30.04R                  
PINE BLUFFS    FAIR      57  54  88 W6        30.12S                  

$$